Satellite-Ground Cal/Val Site Overpasses Predictions

Prediction of Satellite NPP Overpassing Cal/Val Site: Antarctic Dome C

Ground Cal/Val Site Location: Latitude: -75.10, Longitude: 123.35; Satellite-Ground Site NADIR distance within 100 km.

Table of predicted overpasses for the next 14.0 days since TLE Epoch: 4/30/2022
Interval Starting Time Ending Time Minimum Distance Time Minimum Distance (km)
1 04/30/2022 07:31:26 04/30/2022 07:31:55 04/30/2022 07:31:41 3.50
2 05/03/2022 14:54:51 05/03/2022 14:55:20 05/03/2022 14:55:06 19.92
3 05/04/2022 14:36:08 05/04/2022 14:36:22 05/04/2022 14:36:15 87.16
4 05/05/2022 07:37:40 05/05/2022 07:38:08 05/05/2022 07:37:54 34.05
5 05/06/2022 07:18:54 05/06/2022 07:19:12 05/06/2022 07:19:03 76.14
6 05/08/2022 15:01:06 05/08/2022 15:01:30 05/08/2022 15:01:18 56.46
7 05/09/2022 14:42:16 05/09/2022 14:42:41 05/09/2022 14:42:28 52.62
8 05/10/2022 07:43:56 05/10/2022 07:44:17 05/10/2022 07:44:07 68.98
9 05/11/2022 07:25:03 05/11/2022 07:25:30 05/11/2022 07:25:16 39.13
